This is the latest recevied weather packets stored in our database for station/object KD9ZDW. If no packets are shown the sender has not sent any weather packets the latest 10 day(s).
| Time | Temp. | Humidity | Pressure | Rain* | Wind** | Luminosity | Snow |
|---|---|---|---|---|---|---|---|
| 1777482310 | 14.44° C | 71% | 1012.5 hPa | 0 mm | - | 133 W/m² | - |
| 1777482007 | 14.44° C | 70% | 1012.6 hPa | 0 mm | - | 135 W/m² | - |
| 1777481704 | 14.44° C | 72% | 1012.8 hPa | 0 mm | - | 112 W/m² | - |
| 1777481401 | 15° C | 73% | 1013 hPa | 0 mm | - | 73 W/m² | - |
| 1777481097 | 15° C | 72% | 1012.9 hPa | 0 mm | - | 72 W/m² | - |
| 1777480794 | 14.44° C | 71% | 1012.7 hPa | 0 mm | - | 97 W/m² | - |
| 1777480491 | 15° C | 69% | 1012.8 hPa | 0 mm | - | 161 W/m² | - |
| 1777480188 | 15° C | 71% | 1013 hPa | 0 mm | - | 180 W/m² | - |
| 1777479884 | 15° C | 68% | 1012.8 hPa | 0 mm | - | 175 W/m² | - |
| 1777479581 | 15° C | 68% | 1013 hPa | 0 mm | - | 155 W/m² | - |
| 1777479279 | 14.44° C | 70% | 1013 hPa | 0 mm | - | 150 W/m² | - |
| 1777478975 | 15° C | 70% | 1012.9 hPa | 0 mm | - | 193 W/m² | - |
| 1777478672 | 15° C | 69% | 1013 hPa | 0 mm | - | 189 W/m² | - |
| 1777478368 | 15° C | 69% | 1012.7 hPa | 0 mm | - | 210 W/m² | - |
| 1777478065 | 15° C | 70% | 1013 hPa | 0 mm | - | 210 W/m² | - |
| 1777477760 | 15° C | 70% | 1012.9 hPa | 0 mm | - | 190 W/m² | - |
| 1777477457 | 14.44° C | 70% | 1012.9 hPa | 0 mm | - | 214 W/m² | - |
| 1777477153 | 15° C | 69% | 1012.9 hPa | 0 mm | - | 240 W/m² | - |
| 1777476850 | 14.44° C | 72% | 1012.9 hPa | 0 mm | - | 281 W/m² | - |
| 1777476548 | 14.44° C | 71% | 1013 hPa | 0 mm | - | 237 W/m² | - |
| 1777476244 | 15° C | 70% | 1012.9 hPa | 0 mm | - | 238 W/m² | - |
| 1777475939 | 14.44° C | 73% | 1012.8 hPa | 0 mm | - | 263 W/m² | - |
| 1777475636 | 14.44° C | 73% | 1012.8 hPa | 0 mm | - | 292 W/m² | - |
| 1777475333 | 13.33° C | 75% | 1013 hPa | 0 mm | - | 516 W/m² | - |
| 1777475033 | 13.89° C | 74% | 1012.9 hPa | 0 mm | - | 253 W/m² | - |
* Rain latest hour (hover to see other rain measurements)
** Current wind speed in m/s (hover to see current wind gust speed)